Regional Weather Roundup
Issued by NWS Jackson, KY

Home | Current Version | Previous Version | Graphics & Text | Print | Product List | Glossary On
Versions: 1 2 3 4 5 6 7 8 9 10 11 12 13 14 15 16 17 18 19 20 21 22 23 24 25 26 27 28
000
ASUS43 KJKL 032210
RWRJKL

EAST KENTUCKY HOURLY WEATHER ROUNDUP
NATIONAL WEATHER SERVICE JACKSON KY
500 PM EST SAT DEC 03 2016

NOTE: "FAIR" INDICATES FEW OR NO CLOUDS BELOW 12,000 FEET WITH
NO SIGNIFICANT WEATHER AND/OR OBSTRUCTIONS TO VISIBILITY.

* THESE REPORTS ARE NOT UNDER NWS QUALITY CONTROL AND MAY NOT
  REPORT WEATHER SUCH AS PRECIPITATION AND FOG.

KYZ079-080-083-085-087-088-110-112-115-119-120-032300
...EASTERN KENTUCKY...

CITY           SKY/WX    TMP DP  RH WIND       PRES   REMARKS
JACKSON        CLOUDY    39  28  64 CALM      30.29S
LONDON         CLOUDY    41  28  60 NE3       30.28F
SOMERSET*      CLOUDY    39  30  70 CALM      30.31F
MONTICELLO*    CLOUDY    41  31  67 W6        30.31F
WILLIAMSBURG*  CLOUDY    39  32  75 CALM      30.29S
MIDDLESBORO*   MOCLDY    42  30  63 CALM      30.29S
HARLAN APT*    CLOUDY    41  30  65 CALM      30.27F
PIKE CO APT*     N/A     38  29  69 CALM      30.29R
BIG SANDY APT* CLOUDY    40  30  67 CALM      30.30S
MOREHEAD APT*  CLOUDY    41  28  60 CALM      30.32F
ASHLAND*       CLOUDY    41  30  65 CALM      30.31S
$$

KYZ035-036-041-042-044-050-067-078-099-032300
...CENTRAL KENTUCKY...

CITY           SKY/WX    TMP DP  RH WIND       PRES   REMARKS
MT STERLING*   PTCLDY    39  30  70 CALM      30.32F
FLEMING/MASON* MOCLDY    38  28  66 CALM      30.33S
DANVILLE*      MOCLDY    39  32  75 CALM      30.31S
LEXINGTON      CLOUDY    40  28  62 NE5       30.31S
FRANKFORT      CLOUDY    42  28  57 CALM      30.30S
LOUISVILLE     CLOUDY    43  26  51 NE3       30.31F
LEBANON*         N/A     41  30  65 CALM      30.31S
GLASGOW*       CLOUDY    41  32  70 E3        30.28F
BOWLING GREEN  MOCLDY    43  31  62 E3        30.30F
$$

KYZ091>093-OHZ055-061-077-WVZ005-015-034-035-042-032300
...SOUTHERN OHIO/WEST VIRGINIA...

CITY           SKY/WX    TMP DP  RH WIND       PRES   REMARKS
COVINGTON      CLOUDY    40  29  64 CALM      30.30S
COLUMBUS       CLOUDY    38  30  73 NW7       30.31S WCI  33
DAYTON         CLOUDY    37  26  64 CALM      30.31F
WILMINGTON     CLOUDY    38  27  64 CALM      30.30S
HUNTINGTON     CLOUDY    41  28  60 CALM      30.31F
CHARLESTON     MOCLDY    39  26  59 CALM      30.31S
PINEVILLE*     PTCLDY    37  25  60 MISG      30.32F
BECKLEY        CLOUDY    33  24  69 N6        30.24F WCI  28
BLUEFIELD      CLOUDY    31  23  72 NW5       30.23S WCI  26
LOGAN CO APT*  CLOUDY    37  27  65 CALM      30.28S
$$

VAZ002-007-008-TNZ017-027-036-066-071-032300
...SOUTHWEST VIRGINIA/EAST TENNESSEE...

CITY           SKY/WX    TMP DP  RH WIND       PRES   REMARKS
WISE*          CLOUDY    36  28  75 NE3       30.25S
ABINGDON*      PTCLDY    40  28  62 N3        30.25S
BRISTOL        CLOUDY    42  29  59 N3        30.27S
MORRISTOWN*    CLEAR     43  32  65 CALM      30.26F
SEVIERVILLE*   CLEAR     43  30  61 NE5       30.27F
KNOXVILLE      CLOUDY    45  32  60 NE8       30.26F
OAK RIDGE      CLOUDY    45  30  55 E6        30.29S
CROSSVILLE     CLOUDY    40  30  67 NE6       30.24F
NASHVILLE      CLOUDY    44  31  60 NE5       30.28F
$$

...KEY TO REMARKS...
VSB - VISIBILITY IN MILES
WCI - WIND CHILL INDEX
HX  - HEAT INDEX

$$




USA.gov is the U.S. government's official web portal to all federal, state and local government web resources and services.